Location: Earls Croome
(52.0667°N, 2.2000°W)
Time: 14:53:56
(UTC+00:00)

COSMOS 2455 - Pass Details

Date: 29 February 2020
Orbit: 901 x 909 km, 67.1° (Epoch: 09 April)

Event Time Altitude Azimuth Distance (km) Brightness Sun altitude
Rises 20:44:10 0° 206° (SSW) 3,514 5.9 -27.4°
Reaches altitude 10° 20:46:40 10° 204° (SSW) 2,578 5.2 -27.7°
Enters shadow 20:49:02 25° 200° (SSW) 1,734 4.2 -28.0°
